SCP
0 0 0 0 0 0 0 0 0 0 0 0 0 0 0 0 0 0 0 0 0 0 0 0 0 0 0 0 0 0 0 0 0 0 0 0 0 0 0 0 0 0 0 0
0 0 0 0 0 0 0 0 0 0 0 0 0 0 0 0 0 0 0 0 0 0 0 0 0 0 0 0 0 0 0 0 0 0 0 0 0 0 0 0 0 0 0 0
0 0 0 0 0 0 0 0 0 0 0 0 0 -0 -0 0 0 0 0 0 0 0 0 0 0 0 0 0 0 0 0 0 0 0 0 0 0 0 0 0 0 0 0 0
0 0 0 0 0 0 0 0 0 0 0 0 0 -0 -0 -0 0 0 0 0 0 0 0 0 0 0 0 0 0 0 0 0 0 0 0 0 0 0 0 0 0 0 0 0
0 0 0 0 0 0 0 0 0 0 0 0 0 0 -0 -0 0 0 0 0 0 0 0 0 0 0 0 0 0 0 0 0 0 0 0 0 0 0 0 0 0 0 0 0
0 0 0 0 0 0 0 0 0 0 0 0 0 0 0 -0 -0 0 0 0 0 0 0 0 0 0 0 0 0 0 0 0 0 0 0 0 0 0 0 0 0 0 0 0
0 0 0 0 0 0 0 0 0 0 0 0 0 0 0 0 0 0 0 0 0 0 0 0 0 0 0 0 0 0 0 0 0 0 0 0 0 0 0 0 0 0 0 0
0 0 0 0 0 0 0 0 0 0 0 0 0 0 0 0 0 0 0 0 0 0 0 -0 -0 0 0 0 0 0 0 0 0 0 0 0 0 0 0 0 0 0 0 0
0 0 0 0 0 0 0 0 0 0 0 0 0 0 0 0 0 0 0 -0 -0 0 0 0 0 0 0 0 0 0 0 0 0 0 0 0 0 0 0 0 0 0 0 0
0 0 0 0 0 0 0 0 0 0 0 0 0 0 0 0 0 0 0 0 0 0 0 0 0 0 0 0 0 0 0 0 0 0 0 0 0 0 0 0 0 0 0 0
0 0 0 0 0 0 0 0 0 0 0 0 0 0 0 0 0 0 0 0 0 0 0 0 0 0 0 0 0 0 0 0 0 0 0 0 0 0 0 0 0 0 0 0
0 0 0 0 0 0 0 0 0 0 0 0 0 0 0 0 0 0 0 0 0 0 0 0 0 0 0 0 0 0 0 0 0 0 0 0 0 0 0 0 0 0 0 0
0 0 0 0 0 0 0 0 0 0 0 0 0 0 0 0 0 0 0 0 0 0 0 0 0 0 0 0 0 0 0 0 0 0 0 0 0 0 0 0 0 0 0 0
0 0 0 0 0 0 0 0 0 0 0 0 0 0 0 0 0 0 -0 -0 -0 0 0 -0 -0 0 0 0 0 0 0 0 0 0 0 0 0 0 0 0 0 0 0 0
0 0 0 0 0 0 0 0 0 0 0 0 0 0 0 0 0 0 -0 0 0 0 0 0 0 0 0 0 0 0 0 0 0 0 0 0 0 0 0 0 0 0 0 0
0 0 0 0 0 0 0 0 0 0 0 0 0 0 0 0 0 0 0 0 0 0 0 0 0 0 0 0 0 0 0 0 0 0 0 0 0 0 0 0 0 0 0 0
0 0 0 0 0 0 0 0 0 0 0 0 0 0 0 0 0 0 0 0 0 0 0 0 0 0 0 0 0 0 0 0 0 0 0 0 0 0 0 0 0 0 0 0
0 0 0 0 0 0 0 0 0 0 0 0 0 0 0 0 0 0 0 0 0 0 0 0 0 0 0 0 0 0 0 0 0 0 0 0 0 0 0 0 0 0 0 0
0 0 0 0 0 0 0 0 0 0 0 0 0 0 0 0 0 0 0 0 0 0 0 0 0 0 0 0 0 0 0 0 0 0 0 0 0 0 0 0 0 0 0 0
0 0 0 0 0 0 0 0 0 0 0 0 0 0 0 0 0 0 0 0 0 0 0 0 0 0 0 0 0 0 0 0 0 0 0 0 0 0 0 0 0 0 0 0
0 0 0 0 0 0 0 0 0 0 0 0 0 0 0 0 0 0 0 0 0 0 0 0 0 0 0 0 -0 -0 -0 0 -0 0 0 0 0 0 0 0 0 0 0 0
0 0 0 0 0 0 0 0 0 0 0 0 0 0 0 0 0 0 0 0 0 0 0 0 0 0 0 0 -0 -0 -0 -0 0 0 0 0 0 0 0 0 0 0 0 0
0 0 0 0 0 0 0 0 0 0 0 0 0 0 0 0 0 0 0 0 0 0 0 0 -0 0 0 0 0 0 0 0 0 0 0 0 0 0 0 0 0 0 0 0
0 0 0 0 0 0 0 0 0 0 0 0 0 0 0 0 0 0 0 0 0 0 0 0 0 0 0 0 0 0 0 0 0 0 0 0 0 0 0 0 0 0 0 0
0 0 0 0 0 0 0 0 0 0 0 0 0 0 0 0 0 0 0 0 0 -0 0 0 0 0 0 0 0 0 0 0 0 0 0 0 0 0 0 0 0 0 0 0
0 0 0 0 0 0 0 0 0 0 0 0 0 0 0 0 0 0 0 0 0 0 0 0 0 0 0 0 0 0 0 0 0 0 0 0 0 0 0 0 0 0 0 0
Wind_Speed_500mb
7 8 13 21 18 8 10 7 4 6 9 11 16 15 22 44 43 58 65 68 74 74 65 59 58 56 63 67 66 69 76 81 85 89 87 83 81 78 75 76 74 74 73 76
9 10 19 11 7 10 8 7 9 9 1 8 10 23 21 23 44 64 67 78 74 63 54 54 59 61 61 65 72 72 75 83 87 92 90 89 84 84 80 84 80 78 78 76
14 10 19 12 9 13 10 12 9 12 4 6 7 18 11 11 27 45 45 51 56 59 51 42 41 52 60 68 71 78 77 77 83 91 96 96 94 91 90 89 91 87 84 80
9 10 13 12 12 13 11 11 9 6 6 8 4 13 9 11 15 16 62 71 70 67 55 48 40 43 50 59 60 69 78 79 80 91 97 100 100 99 100 96 94 91 87 83
16 14 16 9 12 13 13 8 8 4 5 3 3 1 16 7 10 26 34 53 48 41 31 29 28 30 34 41 52 59 78 82 79 80 89 95 100 99 97 94 93 95 90 89
12 3 12 16 5 10 16 12 15 10 6 8 16 16 10 9 13 7 10 10 9 8 11 13 15 22 28 27 33 46 67 80 75 73 83 90 93 97 95 94 94 94 93 94
2 5 2 9 13 5 9 14 3 5 3 13 2 4 16 12 17 12 12 15 17 21 15 14 15 17 22 21 21 29 50 73 73 72 75 77 84 88 87 87 86 88 89 91
16 8 17 11 15 19 15 17 12 16 9 9 5 12 10 9 21 29 29 29 38 25 17 16 14 11 8 14 22 30 45 55 56 59 63 65 72 77 78 78 77 74 78 80
14 12 3 7 10 20 12 12 11 11 4 6 9 11 19 13 20 37 48 49 34 20 14 13 11 18 21 24 26 29 34 38 44 48 52 54 57 62 64 66 67 68 69 71
14 5 2 3 9 3 12 16 8 4 5 8 9 8 12 13 11 10 16 46 37 18 13 8 10 15 21 20 20 20 20 24 29 35 41 46 48 52 55 59 64 65 64 66
11 8 1 9 14 20 7 7 5 10 10 11 3 10 12 10 6 12 19 36 38 36 29 23 19 13 12 11 10 9 8 10 14 20 24 31 34 41 48 51 55 58 61 63
18 10 9 15 5 9 6 15 14 11 9 8 6 11 7 18 17 37 36 41 41 42 40 33 29 26 24 19 14 16 18 19 17 17 16 16 22 29 39 46 49 50 55 57
18 9 6 8 6 2 10 10 14 8 7 17 11 10 8 18 26 27 25 26 29 31 32 35 29 25 21 20 22 30 31 30 28 27 28 30 33 36 42 45 47 51 54 53
13 6 16 24 8 12 12 10 14 19 10 9 28 9 13 10 11 16 25 21 21 23 23 20 23 29 26 20 23 23 18 25 30 33 38 44 49 51 54 55 56 54 52 54
6 9 6 7 9 7 7 13 16 29 31 24 31 37 11 8 15 28 30 27 26 28 31 32 29 26 25 23 22 23 27 37 42 45 50 54 54 55 57 60 63 65 62 60
5 6 5 6 8 2 4 11 9 8 6 15 7 32 9 25 31 34 32 34 37 35 37 38 36 32 32 33 29 28 30 31 38 43 48 54 58 58 59 62 62 65 68 66
16 10 7 7 10 10 9 34 28 10 12 14 24 23 6 10 20 28 31 30 29 27 29 34 39 39 40 41 42 41 41 39 37 41 45 51 57 62 59 58 61 65 68 69
18 13 5 7 11 12 8 4 33 40 12 20 5 9 14 18 34 35 31 26 27 28 29 31 34 36 39 41 42 43 45 48 50 49 47 48 54 59 60 61 62 63 65 68
8 9 7 9 8 9 7 10 13 21 22 13 16 14 10 16 34 9 28 27 26 26 27 31 34 38 42 45 46 48 48 48 47 48 49 51 54 60 64 67 63 60 62 65
4 11 7 6 11 16 10 1 7 8 8 17 24 15 14 22 9 4 17 23 25 26 27 33 38 40 43 48 51 51 51 51 53 53 52 51 54 57 57 62 66 64 62 66
7 6 18 8 6 13 12 6 6 17 10 30 35 26 20 9 8 5 14 20 26 28 30 34 37 40 45 48 52 52 53 54 57 59 57 54 53 59 60 61 61 64 65 65
17 13 8 7 4 20 16 8 14 11 37 42 32 24 17 10 6 17 26 30 34 38 42 47 54 52 47 47 54 57 57 58 60 60 61 61 60 57 59 65 66 64 63 65
5 10 10 12 9 0 9 32 45 55 52 31 21 11 9 13 21 27 31 35 42 49 54 59 65 69 62 59 59 66 61 62 64 63 63 64 65 61 56 63 68 66 64 64
5 5 6 8 6 9 47 48 41 32 27 16 10 10 16 22 28 33 37 42 47 53 59 64 68 71 73 69 69 69 70 69 71 69 67 67 69 66 63 61 63 67 67 65
6 13 12 3 7 24 27 27 23 20 10 3 3 9 16 23 29 35 42 51 58 63 65 66 71 75 78 78 79 75 76 77 80 77 74 71 68 67 65 63 64 64 64 61
11 10 9 8 32 11 31 22 14 7 5 6 8 11 17 27 36 44 51 56 63 69 73 74 75 78 82 84 88 88 82 79 82 86 83 78 73 73 66 64 66 65 63 58
Wind_Direction_500mb
163 112 182 193 194 145 153 170 204 240 216 160 228 251 263 274 283 282 278 278 277 270 266 257 251 251 248 241 238 236 233 233 231 228 228 229 231 232 234 235 231 226 227 227
51 207 220 191 155 177 219 211 235 295 349 168 275 264 250 253 260 263 271 280 279 280 279 262 251 245 242 242 241 236 237 234 234 233 235 234 234 231 234 235 239 231 229 230
160 225 192 162 169 173 195 179 201 217 359 297 322 286 251 279 255 270 266 265 275 277 284 285 263 248 246 245 242 240 237 239 237 235 232 234 233 235 233 235 238 236 231 234
211 208 159 161 188 153 207 205 184 178 86 248 59 286 278 242 268 287 274 266 269 280 286 282 270 258 250 245 242 242 242 240 238 234 235 235 239 238 241 239 237 237 234 237
228 187 196 165 196 169 221 152 161 108 117 16 287 242 279 259 253 256 274 280 283 281 279 279 267 257 258 253 245 245 241 241 240 241 241 242 241 244 249 248 243 240 241 241
184 183 162 193 111 154 142 77 43 52 63 283 201 183 282 240 216 263 266 313 322 317 307 323 300 263 252 255 242 241 240 241 243 244 243 245 246 247 247 248 248 246 244 244
120 207 175 140 91 60 106 90 349 337 351 234 37 157 242 263 258 251 285 303 310 299 296 303 303 284 262 260 258 241 234 238 240 242 247 252 251 252 254 256 257 256 251 247
161 231 169 191 171 174 183 156 166 195 203 259 308 240 244 275 299 276 273 288 308 296 270 274 270 276 265 269 262 247 237 241 247 251 255 256 256 258 260 261 261 261 259 258
163 237 257 162 150 149 192 207 171 94 34 50 226 293 305 304 291 292 308 317 320 313 284 254 250 276 279 274 261 255 251 249 248 253 257 258 258 259 260 263 263 262 261 260
200 151 280 200 125 52 161 162 84 9 151 254 259 242 217 270 341 333 4 22 23 21 20 338 291 279 280 272 270 268 261 255 251 251 255 258 261 261 263 264 263 264 264 261
153 120 280 128 203 164 134 183 158 134 159 194 251 257 219 159 148 61 42 38 33 33 24 6 354 341 345 345 350 346 332 303 283 271 264 262 264 266 266 268 270 270 269 266
190 136 167 196 230 215 186 186 156 157 228 235 164 248 160 132 105 77 68 64 48 37 30 25 24 17 6 5 7 24 19 4 339 308 288 283 277 272 271 274 277 277 274 271
167 201 81 4 345 171 203 187 179 121 86 205 160 243 171 113 82 65 59 46 41 34 24 26 20 11 11 12 22 13 4 359 346 326 314 304 296 291 288 282 280 278 276 273
104 123 190 209 180 144 181 192 192 191 196 173 231 188 223 250 118 93 63 44 25 20 21 12 15 24 16 353 327 330 320 324 325 318 311 304 302 302 299 292 283 279 278 275
103 147 139 122 97 95 168 177 180 203 214 200 249 232 216 333 8 28 42 42 30 26 26 21 11 3 353 341 333 325 314 311 309 305 301 298 294 293 293 291 287 282 281 279
14 148 121 161 216 20 305 237 236 252 232 265 278 266 85 68 76 64 62 56 48 39 31 24 18 11 4 356 343 325 310 305 303 298 296 294 292 290 288 286 285 280 277 276
148 141 145 202 153 143 259 222 219 214 206 214 233 261 109 71 91 83 64 53 41 30 20 15 12 9 3 357 352 348 340 328 313 303 298 296 293 291 288 284 281 277 277 276
146 143 137 133 127 210 244 328 207 204 204 207 113 116 99 132 125 81 44 40 30 20 14 7 3 359 355 348 344 345 345 343 335 329 321 310 301 295 292 287 282 279 278 276
128 125 153 170 201 299 290 184 155 173 236 191 162 139 125 131 153 120 30 33 26 16 10 2 353 347 344 339 335 333 333 332 330 332 328 323 318 312 304 295 289 283 277 274
72 109 140 161 158 201 242 328 121 117 275 165 137 132 124 143 154 173 4 10 10 11 0 351 348 341 335 334 332 329 327 328 325 322 321 321 317 312 309 306 299 289 278 274
150 167 202 166 189 287 253 218 104 161 229 131 128 113 99 98 117 18 357 350 348 346 344 336 331 332 336 333 328 328 327 329 326 322 318 315 313 311 307 303 299 294 287 277
177 167 178 139 135 254 179 103 165 143 118 117 111 107 98 87 22 342 337 332 328 327 325 322 319 316 318 320 318 319 322 322 320 321 322 319 314 311 308 304 299 292 286 280
216 182 177 176 211 93 144 119 122 128 121 119 107 82 45 357 338 330 326 320 318 318 318 317 315 311 309 308 307 308 313 315 316 316 317 320 321 316 310 308 305 297 289 282
276 156 120 99 291 88 116 117 118 115 107 94 53 0 331 320 313 311 309 311 313 315 317 317 314 310 308 306 304 303 302 304 304 307 309 312 312 317 316 307 301 296 290 284
186 137 139 65 83 119 133 124 119 117 106 80 322 304 301 299 302 306 310 313 315 315 315 314 312 309 306 306 305 307 304 300 298 296 297 301 304 307 309 306 298 290 286 280
193 162 165 198 173 154 173 156 151 179 216 258 278 283 290 298 303 307 309 311 312 311 310 308 306 303 302 301 301 302 305 305 300 295 293 294 296 298 300 300 297 289 283 275
Wind_Speed_850mb
7 8 13 21 18 8 10 7 4 6 9 11 16 15 22 44 43 58 65 68 74 74 65 59 58 56 63 67 66 69 76 81 85 89 87 83 81 78 75 76 74 74 73 76
9 10 19 11 7 10 8 7 9 9 1 8 10 23 21 23 44 64 67 78 74 63 54 54 59 61 61 65 72 72 75 83 87 92 90 89 84 84 80 84 80 78 78 76
14 10 19 12 9 13 10 12 9 12 4 6 7 18 11 11 27 45 45 51 56 59 51 42 41 52 60 68 71 78 77 77 83 91 96 96 94 91 90 89 91 87 84 80
9 10 13 12 12 13 11 11 9 6 6 8 4 13 9 11 15 16 62 71 70 67 55 48 40 43 50 59 60 69 78 79 80 91 97 100 100 99 100 96 94 91 87 83
16 14 16 9 12 13 13 8 8 4 5 3 3 1 16 7 10 26 34 53 48 41 31 29 28 30 34 41 52 59 78 82 79 80 89 95 100 99 97 94 93 95 90 89
12 3 12 16 5 10 16 12 15 10 6 8 16 16 10 9 13 7 10 10 9 8 11 13 15 22 28 27 33 46 67 80 75 73 83 90 93 97 95 94 94 94 93 94
2 5 2 9 13 5 9 14 3 5 3 13 2 4 16 12 17 12 12 15 17 21 15 14 15 17 22 21 21 29 50 73 73 72 75 77 84 88 87 87 86 88 89 91
16 8 17 11 15 19 15 17 12 16 9 9 5 12 10 9 21 29 29 29 38 25 17 16 14 11 8 14 22 30 45 55 56 59 63 65 72 77 78 78 77 74 78 80
14 12 3 7 10 20 12 12 11 11 4 6 9 11 19 13 20 37 48 49 34 20 14 13 11 18 21 24 26 29 34 38 44 48 52 54 57 62 64 66 67 68 69 71
14 5 2 3 9 3 12 16 8 4 5 8 9 8 12 13 11 10 16 46 37 18 13 8 10 15 21 20 20 20 20 24 29 35 41 46 48 52 55 59 64 65 64 66
11 8 1 9 14 20 7 7 5 10 10 11 3 10 12 10 6 12 19 36 38 36 29 23 19 13 12 11 10 9 8 10 14 20 24 31 34 41 48 51 55 58 61 63
18 10 9 15 5 9 6 15 14 11 9 8 6 11 7 18 17 37 36 41 41 42 40 33 29 26 24 19 14 16 18 19 17 17 16 16 22 29 39 46 49 50 55 57
18 9 6 8 6 2 10 10 14 8 7 17 11 10 8 18 26 27 25 26 29 31 32 35 29 25 21 20 22 30 31 30 28 27 28 30 33 36 42 45 47 51 54 53
13 6 16 24 8 12 12 10 14 19 10 9 28 9 13 10 11 16 25 21 21 23 23 20 23 29 26 20 23 23 18 25 30 33 38 44 49 51 54 55 56 54 52 54
6 9 6 7 9 7 7 13 16 29 31 24 31 37 11 8 15 28 30 27 26 28 31 32 29 26 25 23 22 23 27 37 42 45 50 54 54 55 57 60 63 65 62 60
5 6 5 6 8 2 4 11 9 8 6 15 7 32 9 25 31 34 32 34 37 35 37 38 36 32 32 33 29 28 30 31 38 43 48 54 58 58 59 62 62 65 68 66
16 10 7 7 10 10 9 34 28 10 12 14 24 23 6 10 20 28 31 30 29 27 29 34 39 39 40 41 42 41 41 39 37 41 45 51 57 62 59 58 61 65 68 69
18 13 5 7 11 12 8 4 33 40 12 20 5 9 14 18 34 35 31 26 27 28 29 31 34 36 39 41 42 43 45 48 50 49 47 48 54 59 60 61 62 63 65 68
8 9 7 9 8 9 7 10 13 21 22 13 16 14 10 16 34 9 28 27 26 26 27 31 34 38 42 45 46 48 48 48 47 48 49 51 54 60 64 67 63 60 62 65
4 11 7 6 11 16 10 1 7 8 8 17 24 15 14 22 9 4 17 23 25 26 27 33 38 40 43 48 51 51 51 51 53 53 52 51 54 57 57 62 66 64 62 66
7 6 18 8 6 13 12 6 6 17 10 30 35 26 20 9 8 5 14 20 26 28 30 34 37 40 45 48 52 52 53 54 57 59 57 54 53 59 60 61 61 64 65 65
17 13 8 7 4 20 16 8 14 11 37 42 32 24 17 10 6 17 26 30 34 38 42 47 54 52 47 47 54 57 57 58 60 60 61 61 60 57 59 65 66 64 63 65
5 10 10 12 9 0 9 32 45 55 52 31 21 11 9 13 21 27 31 35 42 49 54 59 65 69 62 59 59 66 61 62 64 63 63 64 65 61 56 63 68 66 64 64
5 5 6 8 6 9 47 48 41 32 27 16 10 10 16 22 28 33 37 42 47 53 59 64 68 71 73 69 69 69 70 69 71 69 67 67 69 66 63 61 63 67 67 65
6 13 12 3 7 24 27 27 23 20 10 3 3 9 16 23 29 35 42 51 58 63 65 66 71 75 78 78 79 75 76 77 80 77 74 71 68 67 65 63 64 64 64 61
11 10 9 8 32 11 31 22 14 7 5 6 8 11 17 27 36 44 51 56 63 69 73 74 75 78 82 84 88 88 82 79 82 86 83 78 73 73 66 64 66 65 63 58
Wind_Direction_850mb
163 112 182 193 194 145 153 170 204 240 216 160 228 251 263 274 283 282 278 278 277 270 266 257 251 251 248 241 238 236 233 233 231 228 228 229 231 232 234 235 231 226 227 227
51 207 220 191 155 177 219 211 235 295 349 168 275 264 250 253 260 263 271 280 279 280 279 262 251 245 242 242 241 236 237 234 234 233 235 234 234 231 234 235 239 231 229 230
160 225 192 162 169 173 195 179 201 217 359 297 322 286 251 279 255 270 266 265 275 277 284 285 263 248 246 245 242 240 237 239 237 235 232 234 233 235 233 235 238 236 231 234
211 208 159 161 188 153 207 205 184 178 86 248 59 286 278 242 268 287 274 266 269 280 286 282 270 258 250 245 242 242 242 240 238 234 235 235 239 238 241 239 237 237 234 237
228 187 196 165 196 169 221 152 161 108 117 16 287 242 279 259 253 256 274 280 283 281 279 279 267 257 258 253 245 245 241 241 240 241 241 242 241 244 249 248 243 240 241 241
184 183 162 193 111 154 142 77 43 52 63 283 201 183 282 240 216 263 266 313 322 317 307 323 300 263 252 255 242 241 240 241 243 244 243 245 246 247 247 248 248 246 244 244
120 207 175 140 91 60 106 90 349 337 351 234 37 157 242 263 258 251 285 303 310 299 296 303 303 284 262 260 258 241 234 238 240 242 247 252 251 252 254 256 257 256 251 247
161 231 169 191 171 174 183 156 166 195 203 259 308 240 244 275 299 276 273 288 308 296 270 274 270 276 265 269 262 247 237 241 247 251 255 256 256 258 260 261 261 261 259 258
163 237 257 162 150 149 192 207 171 94 34 50 226 293 305 304 291 292 308 317 320 313 284 254 250 276 279 274 261 255 251 249 248 253 257 258 258 259 260 263 263 262 261 260
200 151 280 200 125 52 161 162 84 9 151 254 259 242 217 270 341 333 4 22 23 21 20 338 291 279 280 272 270 268 261 255 251 251 255 258 261 261 263 264 263 264 264 261
153 120 280 128 203 164 134 183 158 134 159 194 251 257 219 159 148 61 42 38 33 33 24 6 354 341 345 345 350 346 332 303 283 271 264 262 264 266 266 268 270 270 269 266
190 136 167 196 230 215 186 186 156 157 228 235 164 248 160 132 105 77 68 64 48 37 30 25 24 17 6 5 7 24 19 4 339 308 288 283 277 272 271 274 277 277 274 271
167 201 81 4 345 171 203 187 179 121 86 205 160 243 171 113 82 65 59 46 41 34 24 26 20 11 11 12 22 13 4 359 346 326 314 304 296 291 288 282 280 278 276 273
104 123 190 209 180 144 181 192 192 191 196 173 231 188 223 250 118 93 63 44 25 20 21 12 15 24 16 353 327 330 320 324 325 318 311 304 302 302 299 292 283 279 278 275
103 147 139 122 97 95 168 177 180 203 214 200 249 232 216 333 8 28 42 42 30 26 26 21 11 3 353 341 333 325 314 311 309 305 301 298 294 293 293 291 287 282 281 279
14 148 121 161 216 20 305 237 236 252 232 265 278 266 85 68 76 64 62 56 48 39 31 24 18 11 4 356 343 325 310 305 303 298 296 294 292 290 288 286 285 280 277 276
148 141 145 202 153 143 259 222 219 214 206 214 233 261 109 71 91 83 64 53 41 30 20 15 12 9 3 357 352 348 340 328 313 303 298 296 293 291 288 284 281 277 277 276
146 143 137 133 127 210 244 328 207 204 204 207 113 116 99 132 125 81 44 40 30 20 14 7 3 359 355 348 344 345 345 343 335 329 321 310 301 295 292 287 282 279 278 276
128 125 153 170 201 299 290 184 155 173 236 191 162 139 125 131 153 120 30 33 26 16 10 2 353 347 344 339 335 333 333 332 330 332 328 323 318 312 304 295 289 283 277 274
72 109 140 161 158 201 242 328 121 117 275 165 137 132 124 143 154 173 4 10 10 11 0 351 348 341 335 334 332 329 327 328 325 322 321 321 317 312 309 306 299 289 278 274
150 167 202 166 189 287 253 218 104 161 229 131 128 113 99 98 117 18 357 350 348 346 344 336 331 332 336 333 328 328 327 329 326 322 318 315 313 311 307 303 299 294 287 277
177 167 178 139 135 254 179 103 165 143 118 117 111 107 98 87 22 342 337 332 328 327 325 322 319 316 318 320 318 319 322 322 320 321 322 319 314 311 308 304 299 292 286 280
216 182 177 176 211 93 144 119 122 128 121 119 107 82 45 357 338 330 326 320 318 318 318 317 315 311 309 308 307 308 313 315 316 316 317 320 321 316 310 308 305 297 289 282
276 156 120 99 291 88 116 117 118 115 107 94 53 0 331 320 313 311 309 311 313 315 317 317 314 310 308 306 304 303 302 304 304 307 309 312 312 317 316 307 301 296 290 284
186 137 139 65 83 119 133 124 119 117 106 80 322 304 301 299 302 306 310 313 315 315 315 314 312 309 306 306 305 307 304 300 298 296 297 301 304 307 309 306 298 290 286 280
193 162 165 198 173 154 173 156 151 179 216 258 278 283 290 298 303 307 309 311 312 311 310 308 306 303 302 301 301 302 305 305 300 295 293 294 296 298 300 300 297 289 283 275